Home   Weather   Sandnes   Past weeks

Flag for Norway Past Weather in Sandnes, Norway — Yesterday and Last 2 Weeks

48 °F

Scattered clouds.

Feels Like: 46 °F
Forecast: 42 / 51 °F
Wind: 5 mph from East

Location: Stavanger / Sola

Current Time: Oct 24, 2016 at 12:48:30 PM

Latest Report: Oct 24, 2016 at 11:50 AM

Visibility: N/A

Pressure: 30.21 "Hg

Humidity: 58%

Dew Point: 34 °F

Location of SandnesLocation

Past Weather in Sandnes — Graph


Sandnes Temperature Yesterday

Maximum temperature yesterday: 46 °F (at 5:50 PM)
Minimum temperature yesterday: 37 °F (at 7:50 AM)
Average temperature yesterday: 43 °F

High & Low Weather Summary for the Past Weeks

High57 °F (Oct 10, 3:20 PM)100% (Oct 20, 2:50 AM)30.54 "Hg (Oct 20, 2:50 AM)
Low36 °F (Oct 11, 4:50 AM)30% (Oct 15, 12:20 PM)29.89 "Hg (Oct 18, 4:20 PM)
Average47 °F66%30.26 "Hg
* Reported Oct 9 11:20 AM — Oct 24 11:50 AM, Sandnes, Weather by CustomWeather, © 2016

Note: Actual official high and low records may vary slightly from our data, if they occured in-between our weather recording intervals... More about our weather records


Sandnes Weather History for the Previous 24 Hours

Scroll right to see more
Time TempWeatherWind HumidityBarometerVisibility
11:50 AM
Mon, Oct 24
48 °FScattered clouds.5 mph58%30.21 "HgN/A
11:20 AM48 °FScattered clouds.2 mph62%30.24 "HgN/A
10:50 AM46 °FScattered clouds.5 mph66%30.21 "HgN/A
10:20 AM45 °FScattered clouds.6 mph71%30.21 "HgN/A
9:50 AM46 °FScattered clouds.3 mph66%30.21 "HgN/A
9:20 AM41 °FScattered clouds.5 mph76%30.21 "HgN/A
8:50 AM43 °FScattered clouds.2 mph71%30.21 "HgN/A
8:20 AM41 °FPassing clouds.7 mph70%30.21 "HgN/A
7:50 AM43 °FPassing clouds.7 mph71%30.21 "HgN/A
7:20 AM43 °FPassing clouds.5 mph71%30.18 "HgN/A
6:50 AM39 °FPassing clouds.3 mph81%30.18 "HgN/A
6:20 AM37 °FPassing clouds.5 mph81%30.18 "HgN/A
5:50 AM41 °FClear.3 mph70%30.18 "HgN/A
5:20 AM39 °FPassing clouds.3 mph75%30.18 "HgN/A
4:50 AM43 °FPassing clouds.2 mph71%30.18 "HgN/A
3:50 AM45 °FPassing clouds.3 mph61%30.18 "HgN/A
2:50 AM43 °FPassing clouds.3 mph71%30.18 "HgN/A
1:50 AM41 °FPassing clouds.1 mph70%30.15 "HgN/A
12:50 AM41 °FPassing clouds.1 mph70%30.15 "HgN/A
12:20 AM41 °FPassing clouds.No wind66%30.15 "HgN/A
11:50 PM
Sun, Oct 23
43 °FPassing clouds.No wind61%30.15 "HgN/A
11:20 PM45 °FPassing clouds.1 mph57%30.15 "HgN/A
10:50 PM45 °FPartly cloudy.5 mph57%30.15 "HgN/A
10:20 PM45 °FPartly cloudy.7 mph57%30.15 "HgN/A
9:50 PM46 °FPartly cloudy.9 mph53%30.15 "HgN/A
9:20 PM45 °FPassing clouds.6 mph57%30.15 "HgN/A
8:50 PM45 °FPassing clouds.10 mph57%30.15 "HgN/A
8:20 PM45 °FPassing clouds.8 mph57%30.15 "HgN/A
7:50 PM45 °FPartly cloudy.6 mph57%30.15 "HgN/A
7:20 PM45 °FPartly cloudy.8 mph57%30.15 "HgN/A
6:50 PM45 °FPartly cloudy.8 mph57%30.15 "HgN/A
6:20 PM45 °FPartly cloudy.8 mph57%30.15 "HgN/A
5:50 PM46 °FBroken clouds.5 mph53%30.15 "HgN/A
5:20 PM45 °FBroken clouds.1 mph57%30.15 "HgN/A
4:50 PM45 °FBroken clouds.5 mph57%30.15 "HgN/A
4:20 PM45 °FPartly sunny.7 mph57%30.15 "HgN/A
3:50 PM45 °FPartly sunny.6 mph57%30.15 "HgN/A
3:20 PM45 °FPartly sunny.9 mph53%30.18 "HgN/A
2:50 PM45 °FPartly sunny.8 mph53%30.18 "HgN/A
2:20 PM45 °FPartly sunny.6 mph57%30.18 "HgN/A
1:50 PM45 °FPartly sunny.6 mph57%30.18 "HgN/A
1:20 PM43 °FLight rain. Partly sunny.13 mph61%30.18 "HgN/A
12:50 PM45 °FPartly sunny.7 mph57%30.18 "HgN/A
12:20 PM43 °FPartly sunny.5 mph61%30.21 "HgN/A
Weather by CustomWeather, © 2016

See weather overviewHow to use our weather pages